Weather in Kazanka

Russia / Omsk Oblast     55°16′05″N   72°45′04″E
temp.,
°C
wind,
m/s
gust,
m/s
humid.,
%
clouds,
%
prec.,
mm/h
press.,
hPa
HPBL,
m
28 july, wed
wed2800:00+16sw375418 0.0 1009199
03:00+15sw3764100 0.0 1009163
06:00+15sw376396 0.0 1008188
09:00+18sw465221 0.0 1008415
12:00+24sw6730100 0.0 10072523
15:00+21wsw8952100 0.3 10061427
18:00+17wnw598014 1.7 1006433
21:00+15w3685100 0.5 1006160
29 july, thu
thu2900:00+14sw359697 3.9 1007172
03:00+11wnw3690100 0.1 1007107
06:00+9nw49905 0.1 1008183
09:00+14nw57680 0.0 1009725
12:00+18wnw55435 0.0 10101707
15:00+20wnw45335 0.0 10092244
18:00+21w563012 0.0 10092532
21:00+17sw494389 0.0 1009232
30 july, fri
fri3000:00+15wsw41050100 0.0 1010318
03:00+12sw49625 0.0 1009148
06:00+12sw5126587 0.0 1010246
09:00+18wsw61048100 0.0 1010529
12:00+23sw71036100 0.0 10101941
15:00+24wsw893393 0.0 10092507
18:00+25sw693395 0.0 10082389
21:00+21sw51142100 0.0 1009331
31 july, sat
sat3100:00+17wsw71461100 0.0 1009895
03:00+14sw61391100 1.1 1008515
06:00+15ssw61488100 1.6 1007719
09:00+15s51288100 0.3 1007571
12:00+21wsw345434 0.3 10071316
15:00+22nnw5556100 0.0 1007956
18:00+22nnw345696 0.1 10091366
21:00+18n33767 0.1 101128
1 august, sun
sun100:00+15ne12885 0.1 101110
03:00+14e1189100 0.0 101111
06:00+14sse11899 0.0 101211
09:00+19s236792 0.0 1011320
12:00+25ssw4447100 0.0 10101531
15:00+24w455398 0.1 1009589
18:00+24w6962100 0.3 1008568
21:00+18ssw489589 2.1 1007256